Location: Palomar Mountain Lodge
(33.3110°N, 116.8495°W)
Time: 05:19:23
(UTC-07:00)

SJ-6B - Pass Details

Date: 12 July 2018
Orbit: 511 x 582 km, 97.7° (Epoch: 22 September)

Event Time Altitude Azimuth Distance (km) Brightness Sun altitude
Rises 20:23:14 0° 172° (S) 2,757 6.0 -5.3°
Reaches altitude 10° 20:25:22 10° 175° (S) 1,871 5.2 -5.7°
Maximum altitude 20:29:25 70° 259° (WSW) 617 3.3 -6.4°
Drops below altitude 10° 20:33:32 10° 343° (NNW) 1,900 6.4 -7.2°
Sets 20:35:42 0° 346° (NNW) 2,804 7.2 -7.5°
